CW7492 Weather Reports


time (UTC)temp
F
wind
direction
speed
knots
gust
knots
rain 1hr
in
rain 24hr
in
rain mn
in
humidity
%
barometer
mb
20260510015306 50 158 1.7 7.0 0.00 0.38 0.38 96 1007.8
20260510005301 51 205 3.5 7.0 0.00 0.38 0.38 96 1007.4
20260509235301 51 223 0.0 4.3 0.00 0.38 0.38 95 1007.1
20260509225300 53 183 0.0 7.8 0.00 0.38 0.38 96 1006.8
20260509215259 52 213 1.7 7.0 0.05 0.38 0.38 96 1006.8
20260509205259 52 221 0.0 7.0 0.00 0.33 0.33 97 1007.3
20260509195258 51 196 1.7 5.2 0.01 0.33 0.33 97 1007.7
20260509175256 51 194 1.7 7.0 0.00 0.27 0.27 96 1008.0
20260509165255 50 209 0.9 7.0 0.00 0.27 0.27 97 1008.0
20260509155255 49 166 0.9 7.8 0.01 0.27 0.27 97 1008.3
20260509145254 49 152 5.2 9.6 0.02 0.26 0.26 97 1009.0
20260509135254 48 156 0.0 5.2 0.03 0.24 0.24 97 1009.0
20260509125253 47 166 0.0 5.2 0.07 0.21 0.21 97 1009.5
20260509115252 47 181 0.9 7.8 0.04 0.14 0.14 97 1009.7
20260509105252 46 145 2.6 7.0 0.07 0.10 0.10 97 1009.5
20260509085251 46 180 0.0 4.3 0.01 0.03 0.03 96 1009.8
20260509075250 46 241 0.9 4.3 0.00 0.02 0.02 95 1010.5
20260509065250 46 201 0.0 2.6 0.02 0.02 0.02 94 1010.2
20260509045318 45 118 0.0 1.7 0.00 0.00 0.00 81 1010.8
20260509035317 45 118 0.0 2.6 0.00 0.00 0.00 78 1011.0
20260509025316 46 121 0.0 4.3 0.00 0.00 0.00 80 1011.2